Location: *
(43.9905°S, 176.4941°W)
Time: 20:09:08
(UTC+00:00)

Meteor 2-10 - Pass Details

Date: 08 December 2019
Orbit: 737 x 869 km, 81.2° (Epoch: 29 January)

Event Time Altitude Azimuth Distance (km) Brightness Sun altitude
Exits shadow 10:52:01 41° 61° (ENE) 1,110 4.5 -22.5°
Maximum altitude 10:52:48 45° 86° (E) 1,056 4.5 -22.5°
Drops below altitude 10° 10:57:43 10° 157° (SSE) 2,307 7.2 -22.7°
Sets 11:00:07 0° 163° (SSE) 3,228 8.3 -22.7°
